Weather in Reshetnikova

Russia / Sverdlovsk Oblast     57°29′02″N   64°47′15″E
temp.,
°C
wind,
m/s
gust,
m/s
humid.,
%
clouds,
%
prec.,
mm/h
press.,
hPa
HPBL,
m
13 april, tue
tue1323:00+4nw29830 0.0 1038163
02:00+3wnw22890 0.0 103931
05:00+2wnw22910 0.0 104023
08:00+4wnw24820 0.0 1041180
11:00+9w355913 0.0 1040683
14:00+12w34444 0.0 1039941
17:00+13wsw46447 0.0 1037895
20:00+8sw34665 0.0 103652
14 april, wed
wed1423:00+7sw41282100 0.0 1034262
02:00+8sw41390100 0.0 1031346
05:00+7wsw41193100 0.0 1031289
08:00+9wsw41186100 0.0 1030372
11:00+14w5870100 0.0 1029662
14:00+17w585894 0.0 10281082
17:00+17w585393 0.0 10271290
20:00+12w3573100 0.0 102681
15 april, thu
thu1523:00+9w398136 0.0 1026178
02:00+8wsw378615 0.0 1025125
05:00+7wsw38905 0.0 1025141
08:00+10wsw39796 0.0 1024276
11:00+16wsw585425 0.0 1022736
14:00+19wsw58505 0.0 10201332
17:00+19wsw59465 0.0 10181604
20:00+13sw366428 0.0 101799
16 april, fri
fri1623:00+11wsw3126490 0.0 1016221
02:00+9wsw3107189 0.0 1014231
05:00+9n3783100 0.0 1015392
08:00+6n5887100 0.3 1017720
11:00+6nne476793 2.4 10191072
14:00+9n5642100 0.0 10201877
17:00+7nne665090 0.0 10221568
20:00+4nne49547 0.0 1023394
17 april, sat
sat1723:00+1ne37615 0.0 1025261
02:00−1ene24680 0.0 1025118
05:00−2ene11650 0.0 102510
08:00+1sw12465 0.0 1024389
11:00+4w4540100 0.0 10221492
14:00+5wnw5851100 0.3 10201633
17:00+6nnw584027 0.5 10192148
20:00+2nne2560100 0.1 1021285